CW1575 Weather Reports


Display with metric or nautical units.
time (UTC)temp
F
wind
direction
speed
MPH
gust
MPH
rain 1hr
in
rain 24hr
in
rain mn
in
humidity
%
barometer
mb
20260904054149 69 319 1.0 3.0 0.00 0.00 0.00 43 1013.3
20260904053643 69 348 1.0 3.0 0.00 0.00 0.00 43 1013.4
20260904053137 69 117 0.0 2.0 0.00 0.00 0.00 42 1013.4
20260904052643 69 117 1.0 7.0 0.00 0.00 0.00 42 1013.4
20260904052126 69 117 2.0 7.0 0.00 0.00 0.00 41 1013.5
20260904051620 69 112 2.0 7.0 0.00 0.00 0.00 42 1013.4
20260904051113 69 121 1.0 4.0 0.00 0.00 0.00 45 1013.3
20260904050114 70 292 0.0 1.0 0.00 0.00 0.00 45 1012.8
20260904045601 70 292 0.0 1.0 0.00 0.00 0.00 45 1012.8
20260904045056 71 292 0.0 0.0 0.00 0.00 0.00 43 1012.7
20260904044556 71 292 0.0 0.0 0.00 0.00 0.00 42 1012.7
20260904044053 71 292 0.0 1.0 0.00 0.00 0.00 43 1012.8
20260904043052 72 292 0.0 1.0 0.00 0.00 0.00 42 1012.8
20260904042051 73 292 0.0 1.0 0.00 0.00 0.00 41 1012.8
20260904041547 73 292 0.0 0.0 0.00 0.00 0.00 41 1012.9
20260904040057 74 292 0.0 2.0 0.00 0.00 0.00 39 1012.7
20260904035040 75 315 2.0 3.0 0.00 0.00 0.00 39 1012.5
20260904034540 75 313 1.0 3.0 0.00 0.00 0.00 39 1012.7
20260904034038 75 228 1.0 3.0 0.00 0.00 0.00 38 1012.7
20260904033535 76 199 1.0 3.0 0.00 0.00 0.00 36 1012.7
20260904032532 76 243 0.0 3.0 0.00 0.00 0.00 34 1012.4
20260904032030 76 277 1.0 6.0 0.00 0.00 0.00 34 1012.3
20260904031526 77 277 1.0 6.0 0.00 0.00 0.00 34 1012.3
20260904030521 77 303 2.0 8.0 0.00 0.00 0.00 33 1012.1
20260904030016 77 253 2.0 8.0 0.00 0.00 0.00 32 1012.0
20260904025509 78 311 2.0 6.0 0.00 0.00 0.00 32 1011.8
20260904025016 78 265 2.0 7.0 0.00 0.00 0.00 31 1011.7
20260904024458 78 313 2.0 7.0 0.00 0.00 0.00 30 1011.7
20260904023951 79 327 2.0 8.0 0.00 0.00 0.00 29 1011.7
20260904023446 79 321 2.0 8.0 0.00 0.00 0.00 30 1011.7
20260904022939 80 311 2.0 8.0 0.00 0.00 0.00 29 1011.6
20260904022434 80 306 2.0 8.0 0.00 0.00 0.00 28 1011.6
20260904021421 81 328 2.0 5.0 0.00 0.00 0.00 27 1011.3
20260904020917 81 340 2.0 5.0 0.00 0.00 0.00 27 1011.1
20260904020409 81 327 3.0 6.0 0.00 0.00 0.00 27 1011.0
20260904015904 82 338 3.0 10.0 0.00 0.00 0.00 27 1010.9
20260904015357 82 319 4.0 10.0 0.00 0.00 0.00 26 1010.9
20260904014851 82 355 5.0 10.0 0.00 0.00 0.00 26 1010.8
20260904014346 82 348 4.0 11.0 0.00 0.00 0.00 26 1010.8
20260904013852 83 350 4.0 11.0 0.00 0.00 0.00 26 1010.8
20260904013334 83 36 4.0 11.0 0.00 0.00 0.00 26 1010.8
20260904012827 83 51 5.0 12.0 0.00 0.00 0.00 25 1010.7
20260904011815 84 340 3.0 11.0 0.00 0.00 0.00 25 1010.9
20260904011310 84 355 4.0 9.0 0.00 0.00 0.00 24 1010.9
20260904010803 85 341 4.0 12.0 0.00 0.00 0.00 25 1010.9
20260904010258 85 11 3.0 12.0 0.00 0.00 0.00 24 1010.9
20260904005752 85 22 3.0 11.0 0.00 0.00 0.00 24 1010.9
20260904005245 85 30 4.0 10.0 0.00 0.00 0.00 24 1010.9
20260904004739 85 17 3.0 10.0 0.00 0.00 0.00 24 1011.0
20260904004234 86 40 3.0 8.0 0.00 0.00 0.00 23 1011.0
20260904003727 86 36 2.0 8.0 0.00 0.00 0.00 23 1011.1
20260904002715 86 22 2.0 8.0 0.00 0.00 0.00 23 1011.3
20260904002209 86 21 2.0 8.0 0.00 0.00 0.00 23 1011.1
20260904000651 87 36 2.0 6.0 0.00 0.00 0.00 22 1011.1
20260903235133 88 42 2.0 10.0 0.00 0.00 0.00 22 1011.0
20260903234627 88 46 2.0 10.0 0.00 0.00 0.00 23 1011.0
20260903234122 88 71 1.0 8.0 0.00 0.00 0.00 23 1011.1
20260903233615 89 101 2.0 8.0 0.00 0.00 0.00 22 1011.1
20260903231551 89 49 3.0 10.0 0.00 0.00 0.00 23 1011.1
20260903230553 89 93 2.0 8.0 0.00 0.00 0.00 21 1011.1
20260903230046 89 74 3.0 9.0 0.00 0.00 0.00 22 1011.1
20260903225528 89 126 3.0 9.0 0.00 0.00 0.00 22 1011.0
20260903225022 89 125 2.0 9.0 0.00 0.00 0.00 21 1011.1
20260903224516 89 119 2.0 8.0 0.00 0.00 0.00 21 1011.1
20260903224009 89 80 2.0 8.0 0.00 0.00 0.00 21 1011.1
20260903223505 89 34 2.0 9.0 0.00 0.00 0.00 22 1011.0
20260903222958 89 350 2.0 9.0 0.00 0.00 0.00 22 1011.1
20260903222452 90 25 1.0 6.0 0.00 0.00 0.00 21 1011.3
20260903221946 90 96 1.0 5.0 0.00 0.00 0.00 21 1011.3
20260903220933 90 31 2.0 8.0 0.00 0.00 0.00 21 1011.4
20260903220427 90 44 2.0 8.0 0.00 0.00 0.00 22 1011.5
20260903215921 90 103 2.0 7.0 0.00 0.00 0.00 21 1011.5
20260903215416 90 30 2.0 8.0 0.00 0.00 0.00 22 1011.6
20260903214910 90 38 2.0 10.0 0.00 0.00 0.00 23 1011.7
20260903214406 90 132 3.0 10.0 0.00 0.00 0.00 21 1011.7
20260903213907 90 171 3.0 8.0 0.00 0.00 0.00 23 1011.7
20260903213406 90 96 2.0 8.0 0.00 0.00 0.00 21 1011.8
20260903212907 90 43 2.0 8.0 0.00 0.00 0.00 24 1012.0
20260903212406 90 98 2.0 8.0 0.00 0.00 0.00 22 1012.1
20260903211906 90 61 2.0 6.0 0.00 0.00 0.00 23 1012.1
20260903211402 91 340 2.0 9.0 0.00 0.00 0.00 21 1012.1
20260903210905 91 92 2.0 9.0 0.00 0.00 0.00 22 1012.1
20260903210415 91 51 2.0 7.0 0.00 0.00 0.00 25 1012.2
20260903205902 91 30 2.0 7.0 0.00 0.00 0.00 22 1012.2
20260903205358 91 90 2.0 7.0 0.00 0.00 0.00 24 1012.3
20260903204359 91 56 3.0 9.0 0.00 0.00 0.00 24 1012.5
20260903203858 90 34 3.0 9.0 0.00 0.00 0.00 22 1012.5
20260903203358 91 94 2.0 8.0 0.00 0.00 0.00 22 1012.7
20260903202858 91 15 2.0 2.0 0.00 0.00 0.00 21 1012.7